[[{"header":{"parameterUnit":"m.s-1","parameterCategory":1,"la1":30.2991,"la2":30.254,"lo1":-89.0895,"lo2":-89.0444,"dy":0.0017,"dx":0.0017,"nx":28,"ny":28,"refTime":"2026-01-31T09:00:00:Z","depth":0,"parameterNumber":2,"parameterNumberName":"U-component_of_WINDS"},"data":[0,0,0,0,0,0,0,0,0,0,0,0,0,0,0,0,0,0,0,0,0,0,0,0,0,0,0,0,0,0,0,0,0,0,0,0,0,0,0,0,0,0,0,0,0,0,0,0,0,0,0,0,0,0,0,0,0,0,4.18,4.18,0,4.1837,4.1838,4.1838,4.1791,4.1789,4.1788,4.1786,4.1822,4.1824,4.1827,0,0,0,0,0,0,0,0,0,0,0,0,0,4.1687,4.1689,4.18,4.18,4.1801,4.1837,4.1838,4.1838,4.1791,4.1789,4.1787,4.1785,4.1821,4.1824,4.1827,0,0,0,0,0,0,0,0,0,0,0,0,0,4.1731,4.169,4.18,4.1782,4.1781,4.1837,4.1838,4.1838,4.1792,4.1789,4.1787,4.1784,4.182,4.1823,4.1827,4.1902,0,0,4.1839,4.1841,0,0,0,0,0,0,0,0,4.1728,4.1735,4.1784,4.1783,4.1782,4.1807,4.1811,4.186,4.1792,4.1787,4.1786,4.1783,4.1819,4.1822,4.1835,4.1904,4.1905,4.1839,4.1842,4.1843,4.1844,0,0,0,0,0,0,0,4.1725,4.1733,4.1814,4.1785,4.1783,4.1771,4.1775,4.182,4.1817,4.1788,4.1784,4.179,4.1817,4.1831,4.1835,4.1906,4.1839,4.1842,4.1845,4.1846,4.2039,4.2042,0,0,0,0,0,0,4.1725,4.1731,4.1813,4.1816,4.1748,4.1776,4.1779,4.1801,4.1816,4.1816,4.1792,4.1787,4.1826,4.1831,4.1836,4.1925,4.1843,4.1847,4.1849,4.2036,4.204,4.2043,0,0,0,0,0,0,4.1723,4.1733,4.1812,4.1772,4.1782,4.178,4.1805,4.1803,4.1817,4.1819,4.1818,4.1806,4.1824,4.1831,4.1887,4.1926,4.1848,4.1852,4.2033,4.2037,4.2041,4.2104,0,0,0,0,0,0,4.1719,4.1732,4.1761,4.1773,4.1784,4.1862,4.1808,4.1806,4.1824,4.1819,4.1833,4.1833,4.1823,4.1881,4.189,4.193,4.1855,4.2029,4.2035,4.204,4.2098,4.211,4.212,0,0,0,0,0,4.1716,4.1776,4.1762,4.1772,4.182,4.1864,4.187,4.1858,4.1828,4.1856,4.1858,4.1832,4.1921,4.1887,4.1897,4.1938,4.2027,4.2033,4.204,4.2094,4.2108,4.2119,0,0,0,0,0,0,4.1766,4.1777,4.1762,4.1829,4.1846,4.1856,4.1892,4.1873,4.1898,4.1892,4.1875,4.1879,4.1939,4.1944,4.1907,4.2012,4.1969,4.1977,4.2006,4.202,4.203,4.2027,4.1858,0,0,0,0,0,4.1786,4.1821,4.1829,4.1886,4.1896,4.1893,4.1912,4.1901,4.1918,4.1925,4.193,4.1947,4.1979,4.1999,4.2029,4.21,4.2102,4.2133,4.2144,4.2152,4.216,4.2198,4.2212,4.2064,4.2064,4.2064,0,0,4.1825,4.1835,4.1858,4.1897,4.1909,4.1946,4.1899,4.194,4.1967,4.193,4.1983,4.1989,4.2006,4.207,4.2098,4.2076,4.2201,4.2161,4.2167,4.217,4.2206,4.222,4.2233,4.2068,4.2067,4.2067,0,0,4.1915,4.1927,4.1977,4.1991,4.201,4.2008,4.202,4.2034,4.2036,4.2089,4.2063,4.2095,4.215,4.2164,4.2178,4.2277,4.2254,4.2287,4.2342,4.2379,4.2391,4.2401,4.2436,4.2449,4.2294,4.2294,4.2294,0,4.1961,4.2016,4.2004,4.2048,4.2066,4.2036,4.2087,4.21,4.2128,4.2141,4.2117,4.2186,4.2195,4.2262,4.2287,4.2299,4.2312,4.2284,4.239,4.2401,4.241,4.2443,4.2456,4.2298,4.2298,4.2297,4.2297,0,4.2072,4.2111,4.2149,4.2178,4.22,4.2247,4.2242,4.2266,4.2254,4.2255,4.231,4.2321,4.2352,4.2368,4.2356,4.2433,4.2419,4.2393,4.2349,4.2428,4.2459,4.2471,4.2303,4.2302,4.2301,4.23,0,0,4.2193,4.2217,4.2231,4.2245,4.2265,4.2295,4.2341,4.2372,4.2393,4.2414,4.2452,4.25,4.2476,4.2493,4.2483,4.2516,4.2594,4.2486,4.2486,4.2505,4.268,4.2698,4.2713,4.258,4.2582,4.2584,4.2678,0,4.2284,4.2364,4.2355,4.2431,4.2467,4.2441,4.248,4.2497,4.25,4.253,4.2532,4.2566,4.2533,4.2543,4.2575,4.2577,4.2628,4.2571,4.2614,4.2615,4.2609,4.2729,4.2749,4.2837,4.269,4.2692,4.2693,0,4.2399,4.2426,4.2506,4.2522,4.2537,4.2573,4.2602,4.2632,4.2651,4.265,4.267,4.2655,4.27,4.2657,4.2719,4.268,4.2698,4.2702,4.2705,4.2708,4.2658,4.2734,4.2865,4.2878,4.2712,4.2711,4.2709,0,4.248,4.2535,4.259,4.2603,4.2623,4.2649,4.2659,4.2676,4.2696,4.2721,4.2734,4.2765,4.2781,4.2805,4.2798,4.2767,4.2862,4.2818,4.2862,4.2863,4.2882,4.2881,4.3017,4.2896,4.2895,4.2895,4.2895,0,4.2581,4.263,4.2627,4.2661,4.2716,4.2706,4.2761,4.2767,4.2783,4.2817,4.2796,4.2829,4.2818,4.2851,4.2846,4.2899,4.2906,4.2906,4.2904,4.2908,4.2908,4.2918,4.2911,4.2899,4.2898,4.2897,4.2897,0,4.2679,4.2678,4.2737,4.2752,4.2758,4.2798,4.2811,4.2842,4.2844,4.2888,4.2897,4.2899,4.2936,4.2933,4.2974,4.297,4.3036,4.3027,4.303,4.3027,4.3072,4.3068,4.3218,4.3237,4.3105,4.3106,4.3107,0,4.2743,4.2781,4.2801,4.2823,4.2835,4.2871,4.2892,4.2884,4.2907,4.2933,4.2961,4.2997,4.3024,4.3085,4.3089,4.3121,4.3112,4.3163,4.3116,4.3119,4.3112,4.3109,4.3113,4.3171,4.3173,4.3174,4.3175,0,4.2856,4.2855,4.2886,4.2919,4.2945,4.2969,4.2992,4.3011,4.3005,4.3032,4.307,4.3092,4.3135,4.317,4.3201,4.321,4.3192,4.319,4.3202,4.3205,4.3205,4.3205,4.3053,4.3186,4.3185,4.3184,4.3184,4.3183,4.2939,4.2971,4.2992,4.3028,4.3044,4.3066,4.3097,4.3103,4.3135,4.317,4.3164,4.3207,4.3226,4.3265,4.3278,4.3311,4.3293,4.331,4.3314,4.3318,4.3323,4.3201,4.3317,4.3316,4.3316,4.3316,4.3316,0,4.3051,4.3063,4.3097,4.3129,4.3158,4.314,4.3165,4.3189,4.3228,4.3248,4.3276,4.3321,4.3355,4.3364,4.3397,4.3422,4.3415,4.3431,4.3428,4.3431,4.3338,4.3324,4.3436,4.3436,4.3436,4.3436,4.3436,4.3436,4.3112,4.3167,4.3168,4.3231,4.3243,4.3286,4.3301,4.3321,4.3337,4.3388,4.3417,4.3423,4.3439,4.3473,4.3504,4.3506,4.3519,4.3538,4.3536,4.3449,4.3437,4.3426,4.3412,4.3541,4.3541,4.3626,4.3627,4.3627]},{"header":{"parameterUnit":"m.s-1","parameterCategory":1,"la1":30.2991,"la2":30.254,"lo1":-89.0895,"lo2":-89.0444,"dy":0.0017,"dx":0.0017,"nx":28,"ny":28,"refTime":"2026-01-31T09:00:00:Z","depth":0,"parameterNumber":3,"parameterNumberName":"V-component_of_WINDS"},"data":[0,0,0,0,0,0,0,0,0,0,0,0,0,0,0,0,0,0,0,0,0,0,0,0,0,0,0,0,0,0,0,0,0,0,0,0,0,0,0,0,0,0,0,0,0,0,0,0,0,0,0,0,0,0,0,0,0,0,-8.1889,-8.1891,0,-8.2123,-8.2126,-8.2129,-8.2082,-8.2077,-8.2073,-8.2069,-8.2304,-8.2314,-8.2324,0,0,0,0,0,0,0,0,0,0,0,0,0,-8.1397,-8.1407,-8.1889,-8.1892,-8.1895,-8.2123,-8.2126,-8.2129,-8.2082,-8.2077,-8.2072,-8.2067,-8.2301,-8.2313,-8.2325,0,0,0,0,0,0,0,0,0,0,0,0,0,-8.1619,-8.141,-8.1888,-8.1899,-8.1902,-8.2122,-8.2126,-8.213,-8.2084,-8.2077,-8.2071,-8.2065,-8.2297,-8.2312,-8.2327,-8.2549,0,0,-8.2374,-8.238,0,0,0,0,0,0,0,0,-8.1607,-8.1637,-8.1894,-8.1899,-8.1903,-8.2067,-8.2039,-8.2271,-8.2085,-8.2015,-8.2069,-8.2062,-8.223,-8.225,-8.2308,-8.256,-8.257,-8.2375,-8.2384,-8.2391,-8.2395,0,0,0,0,0,0,0,-8.1591,-8.1627,-8.1981,-8.1898,-8.1903,-8.1891,-8.1915,-8.2083,-8.2155,-8.202,-8.2017,-8.2046,-8.2231,-8.2294,-8.2313,-8.2574,-8.2375,-8.2388,-8.2398,-8.2404,-8.3022,-8.3029,0,0,0,0,0,0,-8.1573,-8.1614,-8.1974,-8.1988,-8.1736,-8.1905,-8.1932,-8.202,-8.2153,-8.2167,-8.2051,-8.2043,-8.2271,-8.2296,-8.2321,-8.2592,-8.2391,-8.2405,-8.2414,-8.3015,-8.3024,-8.3031,0,0,0,0,0,0,-8.1562,-8.1605,-8.1964,-8.1801,-8.1846,-8.192,-8.202,-8.2028,-8.2091,-8.2177,-8.2189,-8.2102,-8.2266,-8.23,-8.2494,-8.26,-8.2412,-8.2426,-8.3006,-8.3018,-8.3028,-8.3135,0,0,0,0,0,0,-8.1548,-8.1602,-8.1688,-8.1803,-8.1855,-8.2134,-8.2026,-8.2038,-8.2118,-8.211,-8.2228,-8.2241,-8.2264,-8.2471,-8.2509,-8.2618,-8.2438,-8.2997,-8.3011,-8.3024,-8.3122,-8.3148,-8.317,0,0,0,0,0,-8.1531,-8.1707,-8.1692,-8.1736,-8.1964,-8.2141,-8.217,-8.2194,-8.2127,-8.2214,-8.2269,-8.2237,-8.2582,-8.2492,-8.2534,-8.2648,-8.2991,-8.3007,-8.3023,-8.3112,-8.3143,-8.317,0,0,0,0,0,0,-8.16,-8.1722,-8.1707,-8.1926,-8.2024,-8.2132,-8.2242,-8.2226,-8.2343,-8.233,-8.2354,-8.2381,-8.2579,-8.2632,-8.253,-8.2872,-8.2777,-8.2802,-8.2829,-8.286,-8.2884,-8.2867,-8.2451,0,0,0,0,0,-8.1641,-8.1776,-8.1875,-8.2058,-8.2108,-8.2167,-8.2245,-8.2256,-8.2357,-8.2397,-8.2466,-8.2564,-8.2695,-8.278,-8.2905,-8.313,-8.3155,-8.3229,-8.3253,-8.3272,-8.3294,-8.3419,-8.3453,-8.3085,-8.3085,-8.3084,0,0,-8.1727,-8.181,-8.1893,-8.2075,-8.2151,-8.2289,-8.2202,-8.2351,-8.2454,-8.2419,-8.2608,-8.2662,-8.2773,-8.2984,-8.308,-8.3035,-8.3402,-8.3293,-8.3308,-8.332,-8.3439,-8.3474,-8.3505,-8.3096,-8.3094,-8.3092,0,0,-8.1954,-8.203,-8.2193,-8.2272,-8.239,-8.2429,-8.2468,-8.258,-8.2615,-8.2805,-8.2783,-8.2904,-8.3128,-8.3209,-8.3279,-8.3539,-8.3514,-8.3578,-8.3704,-8.3825,-8.3854,-8.388,-8.3974,-8.4007,-8.36,-8.36,-8.36,0,-8.2045,-8.2254,-8.2278,-8.2431,-8.2511,-8.2488,-8.2653,-8.2728,-8.288,-8.2936,-8.2883,-8.3166,-8.3238,-8.3469,-8.3533,-8.359,-8.3635,-8.3565,-8.3848,-8.3874,-8.3899,-8.3989,-8.4024,-8.3607,-8.3606,-8.3606,-8.3605,0,-8.2361,-8.2506,-8.2623,-8.2773,-8.2866,-8.3024,-8.3071,-8.3163,-8.3166,-8.321,-8.3404,-8.3491,-8.3633,-8.3689,-8.3691,-8.392,-8.3889,-8.3842,-8.3747,-8.3941,-8.4026,-8.406,-8.3617,-8.3615,-8.3613,-8.3611,0,0,-8.2637,-8.2801,-8.2843,-8.2912,-8.3041,-8.3153,-8.331,-8.3452,-8.3531,-8.3636,-8.3768,-8.396,-8.3918,-8.3998,-8.401,-8.4116,-8.4318,-8.4056,-8.4059,-8.4103,-8.4577,-8.4612,-8.4652,-8.4303,-8.4309,-8.4315,-8.4568,0,-8.2877,-8.3156,-8.3183,-8.3432,-8.3567,-8.3548,-8.3685,-8.3779,-8.3824,-8.3944,-8.3993,-8.4129,-8.4063,-8.4112,-8.4216,-8.4272,-8.4414,-8.4253,-8.4426,-8.4432,-8.44,-8.4696,-8.4733,-8.4968,-8.4601,-8.4607,-8.4611,0,-8.3195,-8.3313,-8.3576,-8.3689,-8.3746,-8.3869,-8.4002,-8.4117,-8.4223,-8.4248,-8.4339,-8.4338,-8.4498,-8.4398,-8.462,-8.451,-8.4582,-8.462,-8.463,-8.4648,-8.4534,-8.4722,-8.5044,-8.508,-8.4663,-8.4659,-8.4655,0,-8.3372,-8.3596,-8.3783,-8.3843,-8.3978,-8.4065,-8.4125,-8.4225,-8.4309,-8.4425,-8.448,-8.4612,-8.4684,-8.4786,-8.482,-8.4743,-8.5042,-8.4943,-8.5067,-8.5067,-8.5131,-8.5127,-8.547,-8.5176,-8.5176,-8.5175,-8.5174,0,-8.3638,-8.38,-8.3865,-8.3981,-8.4162,-8.4191,-8.4369,-8.4425,-8.4514,-8.4639,-8.463,-8.4747,-8.4784,-8.4908,-8.4935,-8.5116,-8.5148,-8.5173,-8.5179,-8.5175,-8.5172,-8.5223,-8.5208,-8.5184,-8.5182,-8.518,-8.5179,0,-8.3867,-8.3917,-8.412,-8.4232,-8.4264,-8.4393,-8.4489,-8.46,-8.4644,-8.4803,-8.4841,-8.491,-8.5056,-8.51,-8.5273,-8.5292,-8.5504,-8.5494,-8.5469,-8.547,-8.5592,-8.5581,-8.5981,-8.6035,-8.5705,-8.5708,-8.571,0,-8.4034,-8.4158,-8.4285,-8.4369,-8.4434,-8.4569,-8.4656,-8.4689,-8.4779,-8.4911,-8.5006,-8.515,-8.5268,-8.5501,-8.5565,-8.5699,-8.5693,-8.5824,-8.5712,-8.5706,-8.5696,-8.5689,-8.5702,-8.5845,-8.5848,-8.5851,-8.5853,0,-8.4325,-8.4344,-8.447,-8.4606,-8.471,-8.4818,-8.4922,-8.4991,-8.5039,-8.5141,-8.5291,-8.5383,-8.5562,-8.5706,-8.5842,-8.5902,-8.5887,-8.5888,-8.5924,-8.5922,-8.5903,-8.5917,-8.5528,-8.5879,-8.5876,-8.5874,-8.5873,-8.5872,-8.4529,-8.464,-8.4747,-8.4888,-8.4971,-8.5068,-8.5179,-8.5238,-8.5364,-8.5514,-8.5525,-8.5688,-8.5791,-8.5973,-8.6041,-8.6168,-8.6129,-8.6181,-8.6195,-8.6207,-8.6218,-8.5882,-8.6192,-8.6191,-8.6191,-8.619,-8.619,0,-8.4821,-8.489,-8.502,-8.5167,-8.5278,-8.5255,-8.5369,-8.5463,-8.5607,-8.5706,-8.5823,-8.5995,-8.6135,-8.6211,-8.635,-8.6437,-8.6434,-8.6473,-8.6467,-8.6482,-8.6244,-8.6199,-8.6474,-8.6474,-8.6474,-8.6473,-8.6473,-8.6473,-8.4987,-8.5174,-8.5206,-8.5434,-8.55,-8.5661,-8.5729,-8.5819,-8.5898,-8.6092,-8.6209,-8.6259,-8.6349,-8.6495,-8.6622,-8.6641,-8.6693,-8.6737,-8.6751,-8.6527,-8.6498,-8.6471,-8.6429,-8.6747,-8.6748,-8.6979,-8.6981,-8.6983]}]]